User: anonymous   Login
Location: Unspecified
(0.0000°N, 0.0000°E)
Time: 09:44:35
(UTC+00:00)
Language:

UFO-8 - Orbit

View from above orbital plane
View from above orbital plane
View from above satellite
View from above satellite

Ground track
Ground track

The orbit data is extracted from the following two-line orbital elements,

1 25258U 98016A   20050.14095569 -.00000041  00000-0  00000+0 0  9997
2 25258   8.5459  33.2697 0004739 314.8579  22.6585  1.00272890 80404
Epoch (UTC): 19 February 2020 03:22:58
Eccentricity: 0.0004739
inclination: 8.5459°
perigee height: 35766 km
apogee height: 35806 km
right ascension of ascending node: 33.2697°
argument of perigee: 314.8579°
revolutions per day: 1.00272890
mean anomaly at epoch: 22.6585°
orbit number at epoch: 8040

The dashed part of the orbit path shows where the satellite is in the earth's shadow,  

DLR